[Iaude] MPEC W64: 2006 KQ1 [a=1.24,e=0.18,i=9.6,H=22.0,PHA]

mpec at si.edu mpec at si.edu
Thu Nov 24 01:01:22 EST 2016


M.P.E.C. 2016-W64                                Issued 2016 Nov. 24, 05:56 UT
 
     The Minor Planet Electronic Circulars contain information on unusual
         minor planets and routine data on comets.  They are published
    on behalf of Division F of the International Astronomical Union by the
          Minor Planet Center, Smithsonian Astrophysical Observatory,
                          Cambridge, MA 02138, U.S.A.

             Prepared using the Tamkin Foundation Computer Network

                              MPC at CFA.HARVARD.EDU
            URL http://www.minorplanetcenter.net/    ISSN 1523-6714


                                   2006 KQ1
 
                           Revision to MPEC 2006-K26
 
Additional Observations:
     K06K01Q  C2016 11 23.15502 00 41 06.90 -27 24 18.2          20.7 RoEW064926
     K06K01Q  C2016 11 23.15906 00 41 06.70 -27 24 08.3          20.8 RoEW064926
     K06K01Q  C2016 11 23.16348 00 41 06.58 -27 23 58.3          20.7 RoEW064926
     K06K01Q  C2016 11 23.16754 00 41 06.38 -27 23 48.3          20.6 RoEW064926
     K06K01Q  C2016 11 23.17193 00 41 06.18 -27 23 37.9          20.4 RoEW064926
     K06K01Q  C2016 11 23.17598 00 41 05.96 -27 23 29.0          20.8 RoEW064926
     K06K01Q  C2016 11 24.15728 00 40 39.38 -26 44 45.1          21.4 RoEW064926
     K06K01Q  C2016 11 24.16961 00 40 38.96 -26 44 16.9          21.2 RoEW064926
     K06K01Q  C2016 11 24.17917 00 40 38.54 -26 43 53.5          21.0 RoEW064926
     K06K01Q  C2016 11 24.18368 00 40 38.27 -26 43 43.0          20.5 RoEW064926
     K06K01Q  C2016 11 24.19208 00 40 37.94 -26 43 22.3          20.3 RoEW064926
     K06K01Q  C2016 11 24.20041 00 40 37.62 -26 43 02.0          20.5 RoEW064926
 
Observer details:
926 Tenagra II Observatory.  Observers M. Schwartz, P. R. Holvorcem.  Measurer
    M. Schwartz.  0.81-m f/7 Ritchey-Chretien + CCD.
 
First and last observations above in comparison with prediction:
Residuals in seconds of arc (or two decimals in degrees), reference and Delta-T
161123 926 0.24- 0.01+    161124 926 0.24- 0.01+    MPO102350   +0.095 day
 
Orbital elements:
2006 KQ1                                            PHA, Earth MOID = 0.0491 AU
Epoch 2017 Feb. 16.0 TT = JDT 2457800.5                 MPC
M  19.92493              (2000.0)            P               Q
n   0.70973245     Peri.   18.21387     -0.28616086     -0.94354379
a   1.2447237      Node    88.67661     +0.85706122     -0.32990898
e   0.1756474      Incl.    9.60699     +0.42843672     +0.02975210
P   1.39           H   22.0           G   0.15           U   4
Residuals in seconds of arc
060520 G96  0.2-  0.4-    060523 F65  0.1-  0.2+    060605 291  0.6-  0.3-
060520 G96  0.4+  0.2-    060523 F65  0.2-  0.2+    161123 926  0.2-  0.3-
060520 G96  0.0   0.1-    060524 291  0.0   1.1+    161123 926  0.5-  0.2+
060520 G96  0.1-  1.0-    060524 291  0.6-  0.8+    161123 926  0.6+  0.1-
060520 G96  0.3+  0.1+    060524 G96  0.2-  0.3+    161123 926  0.3+  0.4+
060520 G96  0.2-  0.3-    060524 G96  0.3+  0.2-    161123 926  0.3+  0.5+
060520 G96  0.1-  0.4-    060524 G96  0.3+  0.2+    161123 926  0.2-  0.1-
060521 G96  0.2-  0.0     060529 291  0.4-  0.1-    161124 926  0.2-  0.8+
060521 G96  0.5+  0.1+    060529 291  0.3+  0.0     161124 926  0.9+  0.6-
060521 G96  0.2-  0.3-    060529 291  0.9+  0.6-    161124 926  0.5+  0.2-
060521 G96  0.3-  0.3+    060530 715  0.1-  0.5+    161124 926  0.7-  0.5-
060523 291  0.2-  0.8+    060530 715  0.0   0.3-    161124 926  0.5-  0.1-
060523 291  0.8+  0.7-    060530 715  0.0   0.3-    161124 926  0.3-  0.1+
060523 291  0.4-  0.5-    060605 291  0.1-  0.6+
060523 F65  0.1-  0.1+    060605 291  0.4+  0.4-

Ephemeris:
2006 KQ1                 a,e,i = 1.24, 0.18, 10                  q = 1.0261
Date    TT    R. A. (2000) Decl.     Delta      r     Elong.  Phase     V
2016 10 25    01 21 29.5 -38 16 54   0.2551  1.1715   128.9    41.3    21.0
...
2016 11 09    00 54 46.9 -34 50 51   0.2400  1.1319   120.7    48.8    21.0
...
2016 11 17    00 45 24.9 -31 04 44   0.2339  1.1120   116.2    52.9    21.0
...
2016 11 23    00 41 11.4 -27 29 49   0.2299  1.0980   113.0    55.9    21.0
2016 11 24    00 40 43.4 -26 50 31   0.2293  1.0957   112.5    56.3    21.0
2016 11 25    00 40 19.4 -26 10 17   0.2287  1.0935   112.0    56.8    21.0
...
2016 12 01    00 39 19.7 -21 50 01   0.2252  1.0806   109.0    59.6    21.1
...
2016 12 09    00 41 32.3 -15 17 52   0.2214  1.0651   105.4    63.1    21.1
...
2016 12 24    00 54 54.8 -01 13 07   0.2166  1.0423    99.7    68.5    21.2

A. U. Tomatic                (C) Copyright 2016 MPC           M.P.E.C. 2016-W64




More information about the Iaude mailing list